This is the latest recevied weather packets stored in our database for station/object OK2ILA-3. If no packets are shown the sender has not sent any weather packets the latest 10 day(s).
| Time | Temp. | Humidity | Pressure | Rain* | Wind** | Luminosity | Snow |
|---|---|---|---|---|---|---|---|
| 1778213831 | 7.78° C | 79% | 5171.2 hPa | 0.51 mm | - | - | - |
| 1778213221 | 7.78° C | 5% | 5171.2 hPa | 0.51 mm | - | - | - |
| 1778212613 | 7.22° C | 100% | 5171.2 hPa | 0.51 mm | - | - | - |
| 1778212010 | 7.22° C | 3% | 5171.2 hPa | 0.51 mm | - | - | - |
| 1778211404 | 7.22° C | 100% | 1641.2 hPa | 0.51 mm | - | - | - |
| 1778210797 | 7.78° C | 2% | 1641.2 hPa | 0.25 mm | - | - | - |
| 1778210190 | 7.78° C | 5% | 470.4 hPa | 0.25 mm | - | - | - |
| 1778209584 | 7.78° C | 12% | 470.4 hPa | 0.25 mm | - | - | - |
| 1778208977 | 7.78° C | 79% | 470.4 hPa | 0.25 mm | - | - | - |
| 1778208371 | 7.78° C | 1% | 4096.2 hPa | 0.25 mm | - | - | - |
| 1778207766 | 7.78° C | 3% | 4096.2 hPa | 0 mm | - | - | - |
| 1778207159 | 8.33° C | 3% | 4096.2 hPa | 0 mm | - | - | - |
| 1778206554 | 8.33° C | 25% | 4096.2 hPa | 0 mm | - | - | - |
| 1778205949 | 8.33° C | 12% | 4096.2 hPa | 0 mm | - | - | - |
| 1778205342 | 8.33° C | 12% | 4096.2 hPa | 0 mm | - | - | - |
| 1778204736 | 8.33° C | 79% | 4096.2 hPa | 0 mm | - | - | - |
| 1778204130 | 8.33° C | 100% | 4096.2 hPa | 0 mm | - | - | - |
| 1778203523 | 7.78° C | 100% | 4352 hPa | 0 mm | - | - | - |
| 1778202917 | 8.33° C | 3% | 4352 hPa | 0 mm | - | - | - |
| 1778202312 | 8.33° C | 100% | 100.8 hPa | 0 mm | - | - | - |
| 1778201705 | 8.33° C | 79% | 6246.5 hPa | 0 mm | - | - | - |
| 1778201098 | 8.33° C | 51% | 6246.5 hPa | 0 mm | - | - | - |
| 1778200493 | 8.33° C | 4% | 6246.5 hPa | 0 mm | - | - | - |
| 1778199888 | 8.33° C | 12% | 6246.5 hPa | 0 mm | - | - | - |
| 1778199283 | 8.33° C | 79% | 188.8 hPa | 0 mm | - | - | - |
* Rain latest 24 hours (hover to see other rain measurements)
** Current wind speed in m/s (hover to see current wind gust speed)